Location: Vesunti
(61.5000°N, 22.8333°E)
Time: 16:45:52
(UTC+00:00)

Cosmos 1633 Rocket - Pass Details

Date: 17 February 2020
Orbit: 608 x 622 km, 82.5° (Epoch: 30 March)

Event Time Altitude Azimuth Distance (km) Brightness Sun altitude
Rises 04:02:16 0° 345° (NNW) 2,890 6.4 -15.5°
Reaches altitude 10° 04:04:31 10° 348° (NNW) 1,982 5.6 -15.2°
Maximum altitude 04:08:53 67° 72° (ENE) 669 3.4 -14.7°
Drops below altitude 10° 04:13:14 10° 156° (SSE) 1,976 6.0 -14.2°
Sets 04:15:28 0° 159° (SSE) 2,879 6.8 -13.9°
